EST,Max TemperatureF,Mean TemperatureF,Min TemperatureF,Max Dew PointF,MeanDew PointF,Min DewpointF,Max Humidity, Mean Humidity, Min Humidity, Max Sea Level PressureIn, Mean Sea Level PressureIn, Min Sea Level PressureIn, Max VisibilityMiles, Mean VisibilityMiles, Min VisibilityMiles, Max Wind SpeedMPH, Mean Wind SpeedMPH, Max Gust SpeedMPH,PrecipitationIn, CloudCover, Events, WindDirDegrees
2014-2-1,38,26,14,31,23,12,96,72,48,30.35,30.19,29.98,10,6,1,14,2,19,0.04,5,Snow,163
2014-2-2,40,34,28,34,29,25,100,82,64,30.11,29.93,29.83,10,7,2,14,3,20,T,5,,288
2014-2-3,35,29,22,24,17,14,74,64,53,30.30,30.20,30.08,10,10,10,8,3,12,0.00,6,,349
2014-2-4,33,21,9,16,12,7,96,68,39,30.47,30.39,30.32,10,9,6,10,1,16,0.00,1,,310
2014-2-5,26,22,18,21,18,11,96,73,50,30.28,29.96,29.72,10,2,0,10,3,13,0.38,8,Fog-Snow,2
2014-2-6,24,12,-1,9,3,-4,96,71,45,30.28,30.21,30.05,10,10,7,14,2,18,0.00,2,,349
2014-2-7,26,10,-6,7,0,-7,95,66,36,30.23,30.19,30.14,10,9,6,16,5,22,T,1,,249
2014-2-8,25,12,-2,7,0,-6,83,59,35,30.30,30.22,30.16,10,10,10,13,3,18,0.00,2,,271
2014-2-9,25,19,13,18,12,4,91,69,46,30.19,30.06,29.91,10,5,2,8,2,10,T,7,Snow,89
2014-2-10,22,11,-1,18,9,-2,95,72,49,30.22,30.03,29.89,10,7,2,16,4,21,T,5,Snow,286
2014-2-11,19,5,-10,4,-4,-13,91,67,43,30.50,30.33,30.22,10,8,4,17,5,24,0.00,2,,318
2014-2-12,24,6,-13,2,-7,-17,87,57,27,30.61,30.51,30.41,10,9,4,13,2,15,0.00,0,,141
2014-2-13,28,15,1,25,16,-3,92,83,73,30.39,29.87,29.16,10,2,0,13,3,18,0.00,8,Fog-Snow,28
2014-2-14,31,27,22,27,21,16,92,75,58,29.71,29.15,28.93,10,3,0,22,8,33,0.00,8,Fog-Snow-Thunderstorm,299
2014-2-15,31,26,20,26,22,15,92,80,68,29.84,29.73,29.61,10,5,1,15,2,32,0.12,7,Snow,45
2014-2-16,26,20,13,12,4,-6,67,50,33,30.04,29.81,29.66,10,10,9,18,8,32,T,2,,305
2014-2-17,23,9,-5,-2,-7,-9,79,54,28,30.40,30.29,30.06,10,10,8,16,5,26,0.00,0,,289
2014-2-18,20,7,-6,18,6,-10,92,82,72,30.37,30.14,29.98,10,4,0,6,0,6,0.00,6,Fog-Snow,272
2014-2-19,27,14,0,25,18,-3,100,92,84,30.11,29.88,29.75,9,4,0,6,1,7,0.00,6,Fog-Snow,67
2014-2-20,46,34,21,33,27,19,100,69,37,30.20,30.10,29.88,10,6,2,14,3,19,0.04,4,Rain-Snow,214
2014-2-21,36,33,30,35,33,30,100,96,92,30.11,29.93,29.71,10,2,0,8,1,9,0.81,8,Fog-Rain-Thunderstorm,266
2014-2-22,47,35,23,29,23,11,100,64,27,29.93,29.87,29.81,10,7,0,21,5,30,0.00,3,Fog,227
2014-2-23,46,36,25,25,20,12,78,53,27,29.96,29.88,29.78,10,10,10,18,4,26,0.00,4,,241
2014-2-24,35,27,18,13,9,4,69,52,35,29.94,29.83,29.77,10,9,2,23,11,33,T,6,Snow,280
2014-2-25,22,15,8,10,3,-2,84,62,39,29.97,29.93,29.87,10,10,8,20,7,28,T,4,Snow,281
2014-2-26,21,11,1,12,4,-7,91,62,33,29.92,29.82,29.76,10,8,0,20,5,31,T,6,Snow,259
2014-2-27,22,11,0,13,3,-8,80,58,36,29.93,29.72,29.56,10,5,0,23,7,34,0.01,7,Fog-Snow,260
2014-2-28,18,7,-4,-8,-11,-15,72,48,24,30.45,30.24,29.90,10,9,2,24,7,30,T,0,Snow,279